Location: Seasalter
(51.3333°N, 1.0167°E)
Time: 13:54:29
(UTC+00:00)

ATLAS 5 CENTAUR R/B - Pass Details

Date: 27 April 2024
Orbit: 421 x 1169 km, 63.3° (Epoch: 22 May)

Event Time Altitude Azimuth Distance (km) Brightness Sun altitude
Rises 23:26:32 0° 316° (NW) 2,805 5.7 -24.2°
Reaches altitude 10° 23:28:39 10° 322° (NW) 2,002 4.9 -24.2°
Maximum altitude 23:33:04 47° 37° (NE) 954 2.7 -24.3°
Enters shadow 23:36:11 23° 101° (E) 1,649 3.5 -24.3°
